| time (UTC) | temp F | wind direction | speed knots | gust knots | rain 1hr in | rain 24hr in | rain mn in | humidity % | barometer mb |
| 20260504050512 | 55 | 139 | 0.9 | 5.2 | 0.00 | 0.00 | 0.00 | 62 | 1013.1 |
| 20260504045516 | 55 | 151 | 1.7 | 7.0 | 0.00 | 0.00 | 0.00 | 62 | 1013.1 |
| 20260504045013 | 55 | 139 | 2.6 | 7.0 | 0.00 | 0.00 | 0.00 | 62 | 1012.9 |
| 20260504044538 | 55 | 242 | 1.7 | 7.0 | 0.00 | 0.00 | 0.00 | 62 | 1013.0 |
| 20260504044016 | 55 | 272 | 2.6 | 7.0 | 0.00 | 0.00 | 0.00 | 62 | 1013.0 |
| 20260504043512 | 55 | 150 | 3.5 | 7.0 | 0.00 | 0.00 | 0.00 | 61 | 1013.0 |
| 20260504043032 | 55 | 286 | 1.7 | 7.0 | 0.00 | 0.00 | 0.00 | 62 | 1013.1 |
| 20260504042509 | 55 | 268 | 1.7 | 7.0 | 0.00 | 0.00 | 0.00 | 62 | 1013.2 |
| 20260504042010 | 55 | 262 | 1.7 | 4.3 | 0.00 | 0.00 | 0.00 | 62 | 1013.1 |
| 20260504041532 | 55 | 219 | 1.7 | 4.3 | 0.00 | 0.00 | 0.00 | 61 | 1013.1 |
| 20260504041011 | 55 | 143 | 0.9 | 5.2 | 0.00 | 0.00 | 0.00 | 61 | 1013.0 |
| 20260504040516 | 55 | 155 | 1.7 | 6.1 | 0.00 | 0.00 | 0.00 | 61 | 1013.2 |
| 20260504040030 | 55 | 144 | 1.7 | 6.1 | 0.00 | 0.00 | 0.00 | 61 | 1013.2 |
| 20260504035513 | 55 | 176 | 0.9 | 6.1 | 0.00 | 0.00 | 0.00 | 61 | 1013.3 |
| 20260504035015 | 55 | 201 | 2.6 | 7.0 | 0.00 | 0.00 | 0.00 | 61 | 1013.4 |
| 20260504034535 | 55 | 143 | 2.6 | 7.0 | 0.00 | 0.00 | 0.00 | 61 | 1013.5 |
| 20260504034010 | 55 | 131 | 2.6 | 7.0 | 0.00 | 0.00 | 0.00 | 61 | 1013.4 |
| 20260504033512 | 55 | 143 | 2.6 | 6.1 | 0.00 | 0.00 | 0.00 | 61 | 1013.5 |
| 20260504033032 | 55 | 142 | 1.7 | 7.0 | 0.00 | 0.00 | 0.00 | 61 | 1013.5 |
| 20260504032512 | 55 | 138 | 1.7 | 7.0 | 0.00 | 0.00 | 0.00 | 61 | 1013.6 |
| 20260504032015 | 55 | 160 | 2.6 | 7.0 | 0.00 | 0.00 | 0.00 | 61 | 1013.7 |
| 20260504031532 | 55 | 188 | 1.7 | 6.1 | 0.00 | 0.00 | 0.00 | 61 | 1013.6 |
| 20260504031010 | 55 | 261 | 2.6 | 6.1 | 0.00 | 0.00 | 0.00 | 61 | 1013.7 |
| 20260504030511 | 55 | 260 | 1.7 | 6.1 | 0.00 | 0.00 | 0.00 | 61 | 1013.8 |
| 20260504030040 | 55 | 136 | 0.9 | 5.2 | 0.00 | 0.00 | 0.00 | 60 | 1014.0 |
| 20260504025510 | 55 | 120 | 1.7 | 5.2 | 0.00 | 0.00 | 0.00 | 60 | 1014.0 |
| 20260504025010 | 55 | 197 | 1.7 | 5.2 | 0.00 | 0.00 | 0.00 | 60 | 1013.8 |
| 20260504024530 | 55 | 208 | 1.7 | 4.3 | 0.00 | 0.00 | 0.00 | 60 | 1013.9 |
| 20260504024013 | 55 | 127 | 1.7 | 3.5 | 0.00 | 0.00 | 0.00 | 59 | 1014.1 |
| 20260504023515 | 55 | 164 | 1.7 | 3.5 | 0.00 | 0.00 | 0.00 | 59 | 1014.1 |
| 20260504023032 | 55 | 155 | 0.9 | 5.2 | 0.00 | 0.00 | 0.00 | 59 | 1014.0 |
| 20260504022512 | 55 | 130 | 0.9 | 5.2 | 0.00 | 0.00 | 0.00 | 59 | 1014.0 |
| 20260504022013 | 55 | 182 | 0.9 | 3.5 | 0.00 | 0.00 | 0.00 | 60 | 1014.0 |
| 20260504021535 | 55 | 148 | 0.9 | 3.5 | 0.00 | 0.00 | 0.00 | 60 | 1014.1 |
| 20260504021012 | 55 | 162 | 0.9 | 3.5 | 0.00 | 0.00 | 0.00 | 60 | 1014.1 |
| 20260504020514 | 55 | 0 | 0.9 | 3.5 | 0.00 | 0.00 | 0.00 | 60 | 1014.1 |
| 20260504020036 | 55 | 151 | 0.9 | 2.6 | 0.00 | 0.00 | 0.00 | 59 | 1014.1 |
| 20260504015512 | 56 | 154 | 0.9 | 2.6 | 0.00 | 0.00 | 0.00 | 59 | 1014.0 |
| 20260504015015 | 56 | 145 | 0.9 | 1.7 | 0.00 | 0.00 | 0.00 | 58 | 1014.1 |
| 20260504014531 | 57 | 143 | 0.0 | 0.9 | 0.00 | 0.00 | 0.00 | 56 | 1014.2 |
| 20260504014013 | 57 | 143 | 0.0 | 0.9 | 0.00 | 0.00 | 0.00 | 56 | 1014.3 |
| 20260504013516 | 57 | 0 | 0.0 | 0.9 | 0.00 | 0.00 | 0.00 | 55 | 1014.3 |
| 20260504013033 | 58 | 0 | 0.0 | 0.0 | 0.00 | 0.00 | 0.00 | 54 | 1014.2 |
| 20260504012515 | 58 | 153 | 0.0 | 0.0 | 0.00 | 0.00 | 0.00 | 53 | 1014.2 |
| 20260504012020 | 58 | 0 | 0.0 | 0.0 | 0.00 | 0.00 | 0.00 | 52 | 1014.2 |
| 20260504011532 | 59 | 0 | 0.0 | 0.9 | 0.00 | 0.00 | 0.00 | 52 | 1014.2 |
| 20260504011014 | 59 | 153 | 0.0 | 1.7 | 0.00 | 0.00 | 0.00 | 51 | 1014.1 |
| 20260504010512 | 59 | 153 | 0.0 | 1.7 | 0.00 | 0.00 | 0.00 | 51 | 1014.0 |
| 20260504010030 | 59 | 155 | 0.9 | 1.7 | 0.00 | 0.00 | 0.00 | 51 | 1013.9 |
| 20260504005516 | 60 | 0 | 0.0 | 4.3 | 0.00 | 0.00 | 0.00 | 51 | 1013.8 |
| 20260504005013 | 60 | 140 | 0.9 | 4.3 | 0.00 | 0.00 | 0.00 | 50 | 1013.7 |
| 20260504004532 | 60 | 131 | 0.9 | 4.3 | 0.00 | 0.00 | 0.00 | 50 | 1013.7 |
| 20260504004013 | 60 | 298 | 0.9 | 4.3 | 0.00 | 0.00 | 0.00 | 50 | 1013.5 |
| 20260504003515 | 60 | 162 | 0.9 | 6.1 | 0.00 | 0.00 | 0.00 | 49 | 1013.5 |
| 20260504003034 | 61 | 124 | 0.9 | 6.1 | 0.00 | 0.00 | 0.00 | 49 | 1013.6 |
| 20260504002515 | 61 | 152 | 0.9 | 7.0 | 0.00 | 0.00 | 0.00 | 48 | 1013.3 |
| 20260504002014 | 61 | 179 | 1.7 | 8.7 | 0.00 | 0.00 | 0.00 | 48 | 1013.1 |
| 20260504001534 | 62 | 262 | 2.6 | 8.7 | 0.00 | 0.00 | 0.00 | 46 | 1013.2 |
| 20260504001013 | 62 | 240 | 2.6 | 8.7 | 0.00 | 0.00 | 0.00 | 46 | 1013.3 |
| 20260504000512 | 62 | 161 | 2.6 | 10.4 | 0.00 | 0.00 | 0.00 | 45 | 1013.2 |
| 20260504000032 | 63 | 239 | 1.7 | 10.4 | 0.00 | 0.00 | 0.00 | 45 | 1013.1 |
| 20260503235512 | 63 | 217 | 1.7 | 9.6 | 0.00 | 0.00 | 0.00 | 44 | 1013.2 |
| 20260503235011 | 63 | 156 | 2.6 | 9.6 | 0.00 | 0.00 | 0.00 | 44 | 1013.2 |
| 20260503234543 | 63 | 220 | 3.5 | 7.8 | 0.00 | 0.00 | 0.00 | 43 | 1013.3 |
| 20260503234013 | 63 | 227 | 2.6 | 11.3 | 0.00 | 0.00 | 0.00 | 44 | 1013.1 |
| 20260503233513 | 63 | 212 | 3.5 | 11.3 | 0.00 | 0.00 | 0.00 | 43 | 1013.2 |
| 20260503233031 | 64 | 146 | 3.5 | 11.3 | 0.00 | 0.00 | 0.00 | 43 | 1013.1 |
| 20260503232512 | 64 | 217 | 3.5 | 9.6 | 0.00 | 0.00 | 0.00 | 42 | 1013.1 |
| 20260503232014 | 64 | 198 | 2.6 | 11.3 | 0.00 | 0.00 | 0.00 | 42 | 1013.2 |
| 20260503231532 | 64 | 144 | 4.3 | 11.3 | 0.00 | 0.00 | 0.00 | 42 | 1013.3 |
| 20260503231018 | 64 | 174 | 5.2 | 10.4 | 0.00 | 0.00 | 0.00 | 41 | 1013.4 |
| 20260503230518 | 64 | 268 | 2.6 | 9.6 | 0.00 | 0.00 | 0.00 | 42 | 1013.5 |
| 20260503230040 | 65 | 259 | 3.5 | 9.6 | 0.00 | 0.00 | 0.00 | 40 | 1013.6 |
| 20260503225516 | 64 | 229 | 4.3 | 9.6 | 0.00 | 0.00 | 0.00 | 41 | 1013.7 |
| 20260503225015 | 64 | 247 | 3.5 | 9.6 | 0.00 | 0.00 | 0.00 | 41 | 1014.0 |
| 20260503224532 | 63 | 275 | 3.5 | 12.2 | 0.00 | 0.00 | 0.00 | 41 | 1014.1 |
| 20260503224013 | 63 | 260 | 4.3 | 12.2 | 0.00 | 0.00 | 0.00 | 40 | 1014.0 |
| 20260503223518 | 63 | 234 | 2.6 | 9.6 | 0.00 | 0.00 | 0.00 | 41 | 1014.2 |
| 20260503223032 | 63 | 252 | 2.6 | 7.0 | 0.00 | 0.00 | 0.00 | 42 | 1014.3 |
| 20260503222513 | 63 | 216 | 3.5 | 8.7 | 0.00 | 0.00 | 0.00 | 40 | 1014.4 |
| 20260503222017 | 64 | 240 | 3.5 | 8.7 | 0.00 | 0.00 | 0.00 | 40 | 1014.5 |
| 20260503221531 | 64 | 212 | 3.5 | 11.3 | 0.00 | 0.00 | 0.00 | 39 | 1014.6 |
| 20260503221018 | 64 | 193 | 7.0 | 13.9 | 0.00 | 0.00 | 0.00 | 39 | 1014.6 |
| 20260503220515 | 64 | 301 | 6.1 | 13.9 | 0.00 | 0.00 | 0.00 | 38 | 1014.4 |
| 20260503220044 | 64 | 260 | 4.3 | 12.2 | 0.00 | 0.00 | 0.00 | 39 | 1014.5 |
| 20260503215515 | 64 | 238 | 6.1 | 17.4 | 0.00 | 0.00 | 0.00 | 37 | 1014.6 |
| 20260503215013 | 64 | 202 | 9.6 | 17.4 | 0.00 | 0.00 | 0.00 | 37 | 1014.9 |
| 20260503214530 | 64 | 221 | 4.3 | 11.3 | 0.00 | 0.00 | 0.00 | 39 | 1015.0 |
| 20260503214012 | 64 | 292 | 7.0 | 13.9 | 0.00 | 0.00 | 0.00 | 38 | 1014.9 |
| 20260503213514 | 64 | 229 | 7.0 | 13.9 | 0.00 | 0.00 | 0.00 | 38 | 1015.1 |
| 20260503213032 | 65 | 224 | 7.0 | 13.0 | 0.00 | 0.00 | 0.00 | 37 | 1015.1 |
| 20260503212513 | 65 | 210 | 5.2 | 13.0 | 0.00 | 0.00 | 0.00 | 38 | 1015.1 |
| 20260503212015 | 65 | 267 | 5.2 | 10.4 | 0.00 | 0.00 | 0.00 | 38 | 1015.2 |
| 20260503211532 | 65 | 229 | 4.3 | 13.9 | 0.00 | 0.00 | 0.00 | 38 | 1015.1 |
| 20260503211015 | 64 | 249 | 3.5 | 13.9 | 0.00 | 0.00 | 0.00 | 38 | 1014.8 |
| 20260503210513 | 64 | 172 | 7.0 | 13.9 | 0.00 | 0.00 | 0.00 | 38 | 1014.9 |
| 20260503210031 | 64 | 203 | 4.3 | 10.4 | 0.00 | 0.00 | 0.00 | 38 | 1015.0 |
| 20260503205513 | 64 | 198 | 5.2 | 13.9 | 0.00 | 0.00 | 0.00 | 38 | 1015.1 |
| 20260503205014 | 64 | 227 | 5.2 | 13.9 | 0.00 | 0.00 | 0.00 | 38 | 1015.2 |
| 20260503204532 | 65 | 172 | 4.3 | 9.6 | 0.00 | 0.00 | 0.00 | 40 | 1015.5 |
| 20260503204014 | 64 | 295 | 4.3 | 13.0 | 0.00 | 0.00 | 0.00 | 40 | 1015.5 |
| 20260503203511 | 64 | 204 | 3.5 | 13.0 | 0.00 | 0.00 | 0.00 | 39 | 1015.3 |
| 20260503203033 | 64 | 250 | 4.3 | 13.0 | 0.00 | 0.00 | 0.00 | 39 | 1015.7 |
| 20260503202513 | 63 | 233 | 3.5 | 11.3 | 0.00 | 0.00 | 0.00 | 39 | 1015.7 |
| 20260503202014 | 63 | 205 | 4.3 | 12.2 | 0.00 | 0.00 | 0.00 | 40 | 1015.9 |
| 20260503201533 | 63 | 252 | 5.2 | 12.2 | 0.00 | 0.00 | 0.00 | 37 | 1015.8 |
| 20260503201012 | 63 | 276 | 6.1 | 12.2 | 0.00 | 0.00 | 0.00 | 39 | 1016.0 |
| 20260503200512 | 62 | 172 | 4.3 | 13.9 | 0.00 | 0.00 | 0.00 | 40 | 1016.0 |
| 20260503200032 | 63 | 288 | 6.1 | 13.9 | 0.00 | 0.00 | 0.00 | 38 | 1016.1 |
| 20260503195511 | 64 | 274 | 6.1 | 13.0 | 0.00 | 0.00 | 0.00 | 38 | 1016.0 |
| 20260503195015 | 63 | 326 | 4.3 | 14.8 | 0.00 | 0.00 | 0.00 | 38 | 1016.3 |
| 20260503194531 | 63 | 15 | 7.8 | 14.8 | 0.00 | 0.00 | 0.00 | 38 | 1016.4 |
| 20260503194012 | 63 | 260 | 4.3 | 11.3 | 0.00 | 0.00 | 0.00 | 40 | 1016.6 |
| 20260503193516 | 62 | 217 | 2.6 | 13.9 | 0.00 | 0.00 | 0.00 | 39 | 1016.8 |
| 20260503193035 | 63 | 184 | 7.8 | 13.9 | 0.00 | 0.00 | 0.00 | 38 | 1016.8 |
| 20260503192514 | 63 | 139 | 3.5 | 11.3 | 0.00 | 0.00 | 0.00 | 39 | 1016.9 |
| 20260503192013 | 64 | 139 | 3.5 | 11.3 | 0.00 | 0.00 | 0.00 | 38 | 1017.0 |
| 20260503191531 | 63 | 163 | 3.5 | 10.4 | 0.00 | 0.00 | 0.00 | 39 | 1017.1 |
| 20260503191013 | 63 | 129 | 3.5 | 12.2 | 0.00 | 0.00 | 0.00 | 36 | 1017.2 |
| 20260503190512 | 62 | 239 | 6.1 | 12.2 | 0.00 | 0.00 | 0.00 | 39 | 1017.1 |
| 20260503190032 | 62 | 188 | 5.2 | 12.2 | 0.00 | 0.00 | 0.00 | 38 | 1017.4 |
| 20260503185513 | 62 | 226 | 2.6 | 12.2 | 0.00 | 0.00 | 0.00 | 39 | 1017.4 |
| 20260503185014 | 62 | 259 | 2.6 | 12.2 | 0.00 | 0.00 | 0.00 | 40 | 1017.6 |
| 20260503184532 | 62 | 146 | 4.3 | 12.2 | 0.00 | 0.00 | 0.00 | 37 | 1017.6 |
| 20260503184013 | 62 | 167 | 1.7 | 13.9 | 0.00 | 0.00 | 0.00 | 41 | 1017.8 |
| 20260503183516 | 61 | 246 | 6.1 | 13.9 | 0.00 | 0.00 | 0.00 | 40 | 1017.9 |
| 20260503183044 | 61 | 248 | 7.0 | 13.9 | 0.00 | 0.00 | 0.00 | 39 | 1017.9 |
| 20260503182512 | 62 | 176 | 2.6 | 9.6 | 0.00 | 0.00 | 0.00 | 40 | 1017.8 |
| 20260503182010 | 60 | 130 | 5.2 | 12.2 | 0.00 | 0.00 | 0.00 | 41 | 1017.9 |
| 20260503181531 | 60 | 284 | 5.2 | 12.2 | 0.00 | 0.00 | 0.00 | 40 | 1018.1 |
| 20260503181014 | 61 | 305 | 5.2 | 12.2 | 0.00 | 0.00 | 0.00 | 41 | 1018.1 |
| 20260503180512 | 61 | 290 | 3.5 | 12.2 | 0.00 | 0.00 | 0.00 | 39 | 1018.1 |
| 20260503180031 | 61 | 216 | 3.5 | 12.2 | 0.00 | 0.00 | 0.00 | 39 | 1018.2 |
| 20260503175512 | 60 | 276 | 5.2 | 12.2 | 0.00 | 0.00 | 0.00 | 37 | 1018.3 |
| 20260503175018 | 60 | 134 | 3.5 | 13.9 | 0.00 | 0.00 | 0.00 | 39 | 1018.4 |
| 20260503174533 | 60 | 223 | 5.2 | 13.9 | 0.00 | 0.00 | 0.00 | 38 | 1018.5 |
| 20260503174013 | 61 | 231 | 4.3 | 13.9 | 0.00 | 0.00 | 0.00 | 38 | 1018.4 |
| 20260503173515 | 60 | 184 | 3.5 | 10.4 | 0.00 | 0.00 | 0.00 | 39 | 1018.7 |
| 20260503173030 | 60 | 195 | 5.2 | 12.2 | 0.00 | 0.00 | 0.00 | 38 | 1018.8 |
| 20260503172513 | 60 | 186 | 7.0 | 12.2 | 0.00 | 0.00 | 0.00 | 39 | 1018.8 |
| 20260503172017 | 60 | 255 | 2.6 | 10.4 | 0.00 | 0.00 | 0.00 | 39 | 1018.9 |
| 20260503171532 | 60 | 210 | 3.5 | 10.4 | 0.00 | 0.00 | 0.00 | 40 | 1019.0 |
| 20260503171013 | 60 | 259 | 2.6 | 9.6 | 0.00 | 0.00 | 0.00 | 43 | 1019.1 |
| 20260503170511 | 59 | 233 | 4.3 | 9.6 | 0.00 | 0.00 | 0.00 | 40 | 1019.2 |
| 20260503151012 | 56 | 172 | 3.5 | 9.6 | 0.00 | 0.00 | 0.00 | 47 | 1020.3 |
| 20260503150512 | 56 | 243 | 3.5 | 9.6 | 0.00 | 0.00 | 0.00 | 46 | 1020.3 |
| 20260503131013 | 49 | 150 | 1.7 | 6.1 | 0.00 | 0.00 | 0.00 | 63 | 1020.3 |
| 20260503130512 | 49 | 143 | 2.6 | 6.1 | 0.00 | 0.00 | 0.00 | 62 | 1020.3 |
| 20260503110512 | 37 | 141 | 0.0 | 1.7 | 0.00 | 0.00 | 0.00 | 81 | 1019.6 |
| 20260503090513 | 34 | 0 | 0.0 | 0.0 | 0.00 | 0.00 | 0.00 | 93 | 1019.2 |
| 20260503081535 | 33 | 0 | 0.0 | 0.0 | 0.00 | 0.00 | 0.00 | 91 | 1019.1 |
| 20260503081013 | 33 | 0 | 0.0 | 0.0 | 0.00 | 0.00 | 0.00 | 91 | 1019.0 |
| 20260503080511 | 34 | 0 | 0.0 | 0.0 | 0.00 | 0.00 | 0.00 | 91 | 1019.0 |
| 20260503072512 | 34 | 0 | 0.0 | 0.0 | 0.00 | 0.00 | 0.00 | 92 | 1018.8 |
| 20260503072013 | 34 | 0 | 0.0 | 0.0 | 0.00 | 0.00 | 0.00 | 91 | 1018.8 |
| 20260503071534 | 34 | 0 | 0.0 | 0.0 | 0.00 | 0.00 | 0.00 | 91 | 1018.8 |
| 20260503071012 | 34 | 0 | 0.0 | 0.0 | 0.00 | 0.00 | 0.00 | 91 | 1018.8 |
| 20260503070512 | 34 | 0 | 0.0 | 0.0 | 0.00 | 0.00 | 0.00 | 90 | 1018.9 |
| 20260503055013 | 37 | 0 | 0.0 | 0.0 | 0.00 | 0.00 | 0.00 | 88 | 1019.2 |
| 20260503054533 | 37 | 0 | 0.0 | 0.0 | 0.00 | 0.00 | 0.00 | 87 | 1019.1 |
| 20260503054013 | 37 | 0 | 0.0 | 0.0 | 0.00 | 0.00 | 0.00 | 87 | 1019.2 |
| 20260503053513 | 37 | 0 | 0.0 | 0.0 | 0.00 | 0.00 | 0.00 | 87 | 1019.3 |
| 20260503053034 | 37 | 0 | 0.0 | 0.0 | 0.00 | 0.00 | 0.00 | 87 | 1019.2 |
| 20260503052513 | 38 | 0 | 0.0 | 0.0 | 0.00 | 0.00 | 0.00 | 86 | 1019.2 |